• In Moldova, Republic
  • List of Countries
  • For 7 days
  • Water Temperature
  • Satellite Maps
  • Weather Map
  • Weather Widgets
  • user-avatar
    Login

    Hourly Weather Mayrhofen

    Today, 20 August, Sunday

    Time Temperature Precipitation Wind Pressure Humidity
    00:00 +6°C° 0.1 mm 2 mps 620 mmHg 96%
    01:00 +6°C° 0.1 mm 2 mps 620 mmHg 96%
    02:00 +5°C° 0 mm 2 mps 620 mmHg 96%
    03:00 +5°C° 0 mm 2 mps 619 mmHg 96%
    04:00 +4°C° 0 mm 2 mps 619 mmHg 96%
    05:00 +5°C° 0 mm 2 mps 620 mmHg 95%
    06:00 +6°C° 0 mm 2 mps 620 mmHg 93%
    07:00 +6°C° 0 mm 2 mps 621 mmHg 92%
    08:00 +7°C° 0.1 mm 2 mps 621 mmHg 85%
    09:00 +9°C° 0.1 mm 2 mps 622 mmHg 79%
    10:00 +10°C° 0.1 mm 2 mps 622 mmHg 73%
    11:00 +12°C° 0.2 mm 2 mps 623 mmHg 68%
    12:00 +13°C° 0.2 mm 2 mps 623 mmHg 64%
    13:00 +14°C° 0.2 mm 2 mps 623 mmHg 59%
    14:00 +14°C° 0.1 mm 2 mps 623 mmHg 59%
    15:00 +14°C° 0.1 mm 2 mps 623 mmHg 58%
    16:00 +14°C° 0.1 mm 2 mps 623 mmHg 58%
    17:00 +12°C° 0.1 mm 2 mps 623 mmHg 67%
    18:00 +9°C° 0.1 mm 2 mps 622 mmHg 76%
    19:00 +8°C° 0.1 mm 2 mps 622 mmHg 85%
    20:00 +7°C° 0 mm 2 mps 622 mmHg 88%
    21:00 +7°C° 0 mm 1 mps 622 mmHg 90%
    22:00 +7°C° 0 mm 1 mps 622 mmHg 93%
    23:00 +6°C° 0 mm 1 mps 622 mmHg 93%

    Tomorrow, 21 August, Monday

    Time Temperature Precipitation Wind Pressure Humidity
    00:00 +5°C° 0 mm 1 mps 622 mmHg 94%
    01:00 +5°C° 0 mm 1 mps 621 mmHg 94%
    02:00 +4°C° 0 mm 1 mps 621 mmHg 94%
    03:00 +4°C° 0 mm 1 mps 621 mmHg 94%
    04:00 +4°C° 0 mm 1 mps 620 mmHg 93%
    05:00 +5°C° 0 mm 1 mps 621 mmHg 88%
    06:00 +6°C° 0 mm 1 mps 622 mmHg 83%
    07:00 +7°C° 0 mm 1 mps 622 mmHg 77%
    08:00 +9°C° 0 mm 1 mps 623 mmHg 66%
    09:00 +12°C° 0 mm 1 mps 624 mmHg 55%
    10:00 +14°C° 0 mm 2 mps 624 mmHg 44%
    11:00 +15°C° 0 mm 2 mps 624 mmHg 42%
    12:00 +16°C° 0 mm 2 mps 624 mmHg 39%
    13:00 +17°C° 0 mm 2 mps 624 mmHg 37%
    14:00 +17°C° 0 mm 2 mps 624 mmHg 40%
    15:00 +16°C° 0 mm 3 mps 624 mmHg 43%
    16:00 +16°C° 0 mm 3 mps 624 mmHg 45%
    17:00 +14°C° 0 mm 2 mps 623 mmHg 56%
    18:00 +12°C° 0 mm 2 mps 623 mmHg 67%
    19:00 +9°C° 0 mm 2 mps 622 mmHg 78%
    20:00 +10°C° 0 mm 1 mps 622 mmHg 82%
    21:00 +9°C° 0 mm 1 mps 622 mmHg 86%
    22:00 +8°C° 0 mm 1 mps 622 mmHg 90%
    23:00 +7°C° 0 mm 1 mps 622 mmHg 91%

    Day after tomorrow, 22 August, Tuesday

    Time Temperature Precipitation Wind Pressure Humidity
    00:00 +7°C° 0 mm 1 mps 621 mmHg 91%
    01:00 +6°C° 0 mm 1 mps 621 mmHg 92%
    02:00 +6°C° 0 mm 1 mps 621 mmHg 90%
    03:00 +6°C° 0 mm 1 mps 621 mmHg 89%
    04:00 +5°C° 0 mm 1 mps 620 mmHg 88%
    05:00 +6°C° 0 mm 0 mps 621 mmHg 82%
    06:00 +7°C° 0 mm 0 mps 622 mmHg 76%
    07:00 +9°C° 0 mm 0 mps 622 mmHg 70%
    08:00 +11°C° 0 mm 0 mps 623 mmHg 63%
    09:00 +14°C° 0 mm 1 mps 623 mmHg 56%
    10:00 +16°C° 0 mm 1 mps 624 mmHg 48%
    11:00 +18°C° 0 mm 1 mps 624 mmHg 46%
    12:00 +19°C° 0 mm 1 mps 624 mmHg 45%
    13:00 +20°C° 0 mm 1 mps 624 mmHg 43%
    14:00 +19°C° 0 mm 2 mps 624 mmHg 45%
    15:00 +19°C° 0 mm 2 mps 624 mmHg 47%
    16:00 +18°C° 0 mm 2 mps 623 mmHg 50%
    17:00 +16°C° 0 mm 2 mps 622 mmHg 62%
    18:00 +14°C° 0 mm 1 mps 622 mmHg 74%
    19:00 +12°C° 0 mm 1 mps 621 mmHg 86%
    20:00 +10°C° 0 mm 1 mps 621 mmHg 89%
    21:00 +9°C° 0 mm 1 mps 620 mmHg 92%
    22:00 +8°C° 0 mm 1 mps 620 mmHg 95%
    23:00 +8°C° 0 mm 1 mps 620 mmHg 94%

    23 August, Wednesday

    Time Temperature Precipitation Wind Pressure Humidity
    00:00 +8°C° 0 mm 1 mps 620 mmHg 94%
    01:00 +8°C° 0 mm 1 mps 620 mmHg 93%
    02:00 +8°C° 0 mm 1 mps 619 mmHg 92%
    03:00 +8°C° 0 mm 1 mps 619 mmHg 91%
    04:00 +8°C° 0 mm 1 mps 619 mmHg 90%
    05:00 +9°C° 0 mm 1 mps 620 mmHg 85%
    06:00 +10°C° 0 mm 1 mps 620 mmHg 79%
    07:00 +12°C° 0 mm 1 mps 621 mmHg 74%
    08:00 +14°C° 0 mm 1 mps 622 mmHg 63%
    09:00 +18°C° 0 mm 1 mps 623 mmHg 53%
    10:00 +21°C° 0 mm 1 mps 624 mmHg 42%
    11:00 +21°C° 0 mm 1 mps 624 mmHg 39%
    12:00 +22°C° 0 mm 1 mps 624 mmHg 37%
    13:00 +23°C° 0 mm 2 mps 624 mmHg 35%
    14:00 +23°C° 0 mm 2 mps 624 mmHg 37%
    15:00 +21°C° 0 mm 2 mps 624 mmHg 39%
    16:00 +21°C° 0 mm 2 mps 624 mmHg 41%
    17:00 +18°C° 0.1 mm 2 mps 623 mmHg 53%
    18:00 +16°C° 0.1 mm 1 mps 622 mmHg 66%
    19:00 +13°C° 0.1 mm 1 mps 621 mmHg 79%
    20:00 +12°C° 0 mm 1 mps 621 mmHg 80%
    21:00 +11°C° 0 mm 1 mps 621 mmHg 81%
    22:00 +11°C° 0 mm 1 mps 621 mmHg 83%
    23:00 +11°C° 0 mm 1 mps 621 mmHg 82%

    24 August, Thursday

    Time Temperature Precipitation Wind Pressure Humidity
    00:00 +9°C° 0 mm 2 mps 621 mmHg 82%
    01:00 +9°C° 0 mm 2 mps 621 mmHg 81%
    02:00 +9°C° 0 mm 2 mps 621 mmHg 81%
    03:00 +9°C° 0 mm 2 mps 621 mmHg 81%
    04:00 +9°C° 0 mm 2 mps 621 mmHg 80%
    05:00 +10°C° 0 mm 2 mps 621 mmHg 78%
    06:00 +12°C° 0 mm 2 mps 622 mmHg 75%
    07:00 +13°C° 0 mm 2 mps 622 mmHg 73%
    08:00 +15°C° 0 mm 2 mps 623 mmHg 65%
    09:00 +18°C° 0 mm 2 mps 624 mmHg 57%
    10:00 +20°C° 0 mm 2 mps 625 mmHg 48%
    11:00 +20°C° 0.1 mm 2 mps 625 mmHg 48%
    12:00 +21°C° 0.1 mm 2 mps 625 mmHg 47%
    13:00 +21°C° 0.1 mm 2 mps 625 mmHg 47%
    14:00 +21°C° 0.6 mm 2 mps 624 mmHg 50%
    15:00 +21°C° 0.6 mm 1 mps 624 mmHg 54%
    16:00 +21°C° 0.6 mm 1 mps 624 mmHg 58%
    17:00 +19°C° 0.7 mm 1 mps 623 mmHg 66%
    18:00 +16°C° 0.7 mm 1 mps 623 mmHg 75%
    19:00 +14°C° 0.7 mm 1 mps 622 mmHg 83%
    20:00 +13°C° 0.2 mm 1 mps 622 mmHg 84%
    21:00 +13°C° 0.2 mm 1 mps 622 mmHg 85%
    22:00 +12°C° 0.2 mm 2 mps 622 mmHg 87%
    23:00 +12°C° 0 mm 2 mps 622 mmHg 87%

    25 August, Friday

    Time Temperature Precipitation Wind Pressure Humidity
    00:00 +10°C° 0 mm 2 mps 622 mmHg 87%
    01:00 +10°C° 0 mm 2 mps 621 mmHg 87%
    02:00 +10°C° 0 mm 2 mps 621 mmHg 87%
    03:00 +10°C° 0 mm 2 mps 621 mmHg 86%
    04:00 +10°C° 0 mm 2 mps 621 mmHg 86%
    05:00 +12°C° 0 mm 2 mps 622 mmHg 84%
    06:00 +13°C° 0 mm 1 mps 622 mmHg 81%
    07:00 +14°C° 0 mm 1 mps 623 mmHg 78%
    08:00 +16°C° 0 mm 1 mps 623 mmHg 68%
    09:00 +20°C° 0 mm 1 mps 624 mmHg 58%
    10:00 +22°C° 0 mm 1 mps 625 mmHg 48%
    11:00 +23°C° 0 mm 1 mps 625 mmHg 45%
    12:00 +24°C° 0 mm 2 mps 625 mmHg 42%
    13:00 +24°C° 0 mm 2 mps 625 mmHg 40%
    14:00 +24°C° 0.1 mm 2 mps 625 mmHg 43%
    15:00 +24°C° 0.1 mm 2 mps 625 mmHg 46%
    16:00 +23°C° 0.1 mm 2 mps 624 mmHg 48%
    17:00 +21°C° 0.6 mm 1 mps 624 mmHg 60%
    18:00 +19°C° 0.6 mm 1 mps 623 mmHg 71%
    19:00 +16°C° 0.6 mm 1 mps 623 mmHg 82%
    20:00 +15°C° 0.4 mm 1 mps 623 mmHg 83%
    21:00 +14°C° 0.4 mm 1 mps 623 mmHg 84%
    22:00 +14°C° 0.4 mm 2 mps 623 mmHg 85%
    23:00 +14°C° 0.1 mm 2 mps 622 mmHg 85%
    Show more